This is the latest recevied weather packets stored in our database for station/object RN1M-13. If no packets are shown the sender has not sent any weather packets the latest 10 day(s).
| Time | Temp. | Humidity | Pressure | Rain* | Wind** | Luminosity | Snow |
|---|---|---|---|---|---|---|---|
| 1778185620 | 8.89° C | 62% | 1015.7 hPa | - | - | - | - |
| 1778184720 | 8.89° C | 61% | 1015.4 hPa | - | - | - | - |
| 1778183822 | 9.44° C | 59% | 1015.1 hPa | - | - | - | - |
| 1778182928 | 9.44° C | 56% | 1015 hPa | - | - | - | - |
| 1778182028 | 9.44° C | 55% | 1015 hPa | - | - | - | - |
| 1778181128 | 9.44° C | 56% | 1014.8 hPa | - | - | - | - |
| 1778180228 | 9.44° C | 57% | 1014.7 hPa | - | - | - | - |
| 1778179328 | 9.44° C | 57% | 1014.5 hPa | - | - | - | - |
| 1778178428 | 10° C | 56% | 1014.3 hPa | - | - | - | - |
| 1778177528 | 10° C | 55% | 1014.3 hPa | - | - | - | - |
| 1778176628 | 10° C | 54% | 1014.4 hPa | - | - | - | - |
| 1778175728 | 10.56° C | 52% | 1014.2 hPa | - | - | - | - |
| 1778174828 | 10.56° C | 51% | 1014.2 hPa | - | - | - | - |
| 1778173928 | 11.11° C | 50% | 1014.1 hPa | - | - | - | - |
| 1778173030 | 11.11° C | 48% | 1014 hPa | - | - | - | - |
| 1778172137 | 10.56° C | 47% | 1014.1 hPa | - | - | - | - |
| 1778171237 | 11.11° C | 46% | 1014 hPa | - | - | - | - |
| 1778170336 | 11.11° C | 45% | 1013.8 hPa | - | - | - | - |
| 1778169469 | 11.11° C | 43% | 1013.7 hPa | - | - | - | - |
| 1778169436 | 11.11° C | 43% | 1013.7 hPa | - | - | - | - |
| 1778168536 | 11.67° C | 40% | 1013.6 hPa | - | - | - | - |
| 1778167636 | 11.67° C | 40% | 1013.7 hPa | - | - | - | - |
| 1778166736 | 12.22° C | 39% | 1013.8 hPa | - | - | - | - |
| 1778165836 | 12.22° C | 38% | 1013.7 hPa | - | - | - | - |
| 1778164936 | 11.67° C | 39% | 1013.7 hPa | - | - | - | - |
* Rain since midnight (hover to see other rain measurements)
** Current wind speed in m/s (hover to see current wind gust speed)